sat.trackr.live / text

‹ back to catalog

STARLINK-31320

NORAD 58886 · 2024-020L

PAYLOAD ACTIVE UNKNOWN

§ Identity

Operator
Country
US
Launch date
2024-01-29
Launch site
AFWTR
Launch vehicle
Mass (kg)
RCS (m²)

Purposes: comms

External: N2YO · Heavens-Above · Gunter

§ Orbital elements

Epoch: 2026-09-20T00:38:51.268128Z

Period
93.85 min
Inclination
53.1594°
Eccentricity
0.0001421
Mean motion
15.34390202 rev/d
Perigee alt
461.8 km
Apogee alt
463.7 km
Semi-major
6,840.9 km
B*
5.6351e-5
RAAN
135.5874°
Arg perigee
91.9294°
Mean anomaly
268.1871°
Rev number
14,788

§ Raw data

STARLINK-313201 58886U 24020L   26263.02698227  .00001527  00000+0  56351-4 0  99962 58886  53.1594 135.5874 0001421  91.9294 268.1871 15.34390202147889

JSON: /api/v1/satellites/58886 · /tle

For live sub-satellite position, see the globe view (requires WebGL).

§ Visibility from observer

Set your observer location to see the next 7 days of passes ≥ 10°. The values pass through the URL so the page stays shareable.

No JS? Fill the form by hand. The geolocation button needs JavaScript.